SCP
3 3 3 3 3 3 3 3 2 2 2 3 3 3 2 2 1 1 1 1 1 1 2 1 1 1 1 1 1 0 0 0 0 0 0 0 0 0 0 0 0 0 0
3 3 3 3 3 3 3 3 3 3 3 3 4 3 3 2 2 1 1 1 1 2 2 1 1 1 1 1 0 0 0 0 0 0 0 0 0 0 0 0 0 0 0
3 3 3 3 3 3 3 3 3 3 3 4 4 4 4 3 2 2 2 2 1 2 1 1 1 1 1 1 0 0 0 0 0 0 0 0 0 0 0 0 0 0 0
4 4 4 3 3 3 3 3 3 3 4 4 5 5 5 4 3 2 2 2 2 1 1 1 1 0 0 0 0 0 0 0 0 0 0 0 0 0 0 0 0 0 0
4 4 4 4 3 3 3 3 3 3 4 4 5 5 5 4 3 2 2 1 1 1 1 1 1 0 0 0 0 0 0 0 0 0 0 0 0 0 0 0 0 0 0
4 4 3 3 2 2 2 2 3 3 3 3 3 3 3 3 3 2 2 1 1 1 1 1 0 0 0 0 0 0 0 0 0 0 0 0 0 0 0 0 0 0 0
3 2 2 2 1 1 1 1 1 1 1 1 2 2 2 2 2 2 1 1 0 0 0 0 0 0 0 0 0 0 0 0 0 0 0 0 0 0 0 0 0 0 0
1 1 1 1 0 0 0 0 0 0 0 0 0 0 1 1 1 1 1 0 0 0 0 0 0 0 0 0 0 0 0 0 0 0 0 0 0 0 0 0 0 0 0
0 0 0 0 0 0 0 0 0 0 0 0 0 0 0 0 0 0 0 0 0 0 0 0 0 0 0 0 0 0 0 0 0 0 0 0 0 0 0 0 0 0 0
0 0 0 0 0 0 0 0 0 0 0 0 0 0 0 0 0 0 0 0 0 0 0 0 0 0 0 0 0 0 0 0 0 0 0 0 0 0 0 0 0 0 0
0 0 0 0 0 0 0 0 0 0 0 0 0 0 0 0 0 0 0 0 0 0 0 0 0 0 0 0 0 0 0 0 0 0 0 0 0 0 0 0 0 0 0
0 0 0 0 0 0 0 0 0 0 0 0 0 0 0 0 0 0 0 0 0 0 0 0 0 0 0 0 0 0 0 0 0 0 0 0 0 0 0 0 0 0 0
0 0 0 0 0 0 0 0 0 0 0 0 0 0 0 0 0 0 0 0 0 0 0 0 0 0 0 0 0 0 0 0 0 0 0 0 0 0 0 0 0 0 0
0 0 0 0 0 0 0 0 0 0 0 0 0 0 0 0 0 0 0 0 0 0 0 0 0 0 0 0 0 0 0 0 0 0 0 0 0 0 0 0 0 0 0
0 0 0 0 0 0 0 0 0 0 0 0 0 0 0 0 0 0 0 0 0 0 0 0 0 0 0 0 0 0 0 0 0 0 0 0 0 0 0 0 0 0 0
0 0 0 0 0 0 0 0 0 0 0 0 0 0 0 0 0 0 0 0 0 0 0 0 0 0 0 0 0 0 0 0 0 0 0 0 0 0 0 0 0 0 0
0 0 0 0 0 0 0 0 0 0 0 0 0 0 0 0 0 0 0 0 0 0 0 0 0 0 0 0 0 0 0 0 0 0 0 0 0 0 0 0 0 0 0
0 0 0 0 0 0 0 0 0 0 0 0 0 0 0 0 0 0 0 0 -0 0 0 0 0 0 0 0 0 0 0 0 0 0 0 0 0 0 0 0 0 0 0
0 0 0 0 0 0 0 0 0 0 0 0 0 0 0 0 0 0 0 0 -0 -0 0 0 0 0 0 0 0 0 0 0 0 0 0 0 0 0 0 0 0 0 0
0 0 0 0 0 0 0 0 0 0 0 0 0 0 0 0 0 0 0 0 0 0 0 0 0 0 0 0 0 0 0 0 0 0 0 0 0 0 0 0 0 0 0
0 0 0 0 0 0 0 0 0 0 0 0 0 0 0 0 0 0 0 0 0 0 0 0 0 0 0 0 0 0 0 0 0 0 0 0 0 0 0 0 0 0 0
0 0 0 0 0 0 0 0 0 0 0 0 0 0 0 0 0 0 0 0 0 0 0 0 0 0 0 0 0 0 0 0 0 0 0 0 0 0 0 0 0 0 0
0 0 0 0 0 0 0 0 0 0 0 0 0 0 0 0 0 0 0 0 0 0 0 0 0 0 0 0 0 0 0 0 0 0 0 0 0 0 0 0 0 0 0
0 0 0 0 0 0 0 0 0 0 0 0 0 0 0 0 0 0 0 0 0 0 0 0 0 0 0 0 0 0 0 0 0 0 0 0 0 0 0 0 0 0 0
0 0 0 0 0 0 0 0 0 0 0 0 0 0 0 0 0 0 0 0 0 0 0 0 0 0 0 0 0 0 0 0 0 0 0 0 0 0 0 0 0 0 0
0 0 0 0 0 0 0 0 0 0 0 0 0 0 0 0 0 0 0 0 0 0 0 0 0 0 0 0 0 0 0 0 0 0 0 0 0 0 0 0 0 0 0
Wind_Speed
2 4 4 2 1 3 5 6 7 7 7 6 6 5 4 3 2 2 2 3 4 5 5 4 4 4 4 4 5 4 4 3 1 2 2 3 4 4 4 3 3 4 4
7 7 7 6 4 1 1 3 5 5 7 6 4 3 4 3 3 3 3 3 3 4 4 5 4 4 4 5 4 3 3 2 2 2 2 1 1 2 3 3 3 3 3
9 10 10 9 9 7 4 1 2 4 5 6 5 5 5 3 2 3 3 5 5 5 4 4 4 4 4 4 3 3 4 3 2 2 2 3 3 1 1 3 3 4 3
11 11 11 11 11 9 6 4 3 3 4 5 6 7 5 4 4 4 5 6 7 6 6 5 5 5 4 4 4 3 3 4 2 2 3 3 2 2 1 1 2 3 4
11 12 12 11 11 10 9 7 7 6 6 5 5 5 5 5 6 7 8 6 6 7 7 7 6 6 5 6 6 5 5 3 3 2 2 3 3 3 2 1 2 2 3
11 12 11 12 12 12 11 10 11 11 10 9 8 8 9 9 9 8 7 6 6 6 8 8 8 7 7 7 7 7 8 7 6 5 4 2 2 2 2 1 1 1 2
11 12 13 13 13 13 13 12 13 13 13 13 12 11 10 10 10 9 8 7 6 6 8 8 8 8 8 8 8 9 8 7 7 6 5 4 3 2 2 2 1 1 2
11 12 13 12 13 13 13 13 14 14 14 14 13 12 11 9 9 10 9 9 7 7 8 9 9 9 9 9 8 7 7 7 7 7 5 4 3 2 1 1 1 0 1
11 12 12 12 13 13 13 13 14 15 15 14 14 13 13 13 12 11 10 9 7 7 9 10 10 9 9 9 8 7 7 6 6 5 5 4 3 2 2 1 1 1 1
10 11 11 12 12 12 13 14 14 15 14 13 12 12 13 12 12 11 11 10 9 9 9 10 10 9 9 9 8 7 6 7 5 3 4 3 2 2 1 1 0 1 2
9 10 10 11 11 12 12 13 13 13 13 13 13 13 12 11 11 11 10 9 9 9 9 9 10 9 9 8 8 7 7 7 6 5 4 3 2 1 1 0 0 1 2
9 10 10 10 11 12 12 12 12 12 12 12 12 12 11 11 11 11 10 9 10 9 9 9 9 9 8 8 7 7 7 6 5 5 4 4 2 2 1 1 2 2 3
10 10 10 10 11 11 11 11 11 11 11 11 11 11 11 11 10 10 9 9 9 9 8 8 8 7 7 7 6 6 6 5 5 4 4 4 3 3 2 2 2 2 3
10 10 10 10 10 10 10 10 10 9 9 10 10 10 9 9 9 8 8 8 7 7 7 7 6 6 6 6 6 5 5 5 5 4 4 4 4 4 4 3 3 3 3
10 10 9 9 9 9 9 9 9 8 8 9 9 8 8 8 7 7 7 7 7 6 5 5 5 5 4 4 5 4 5 5 6 6 6 6 6 6 4 3 3 3 4
10 10 9 9 9 8 8 8 7 7 7 8 8 7 7 7 7 6 6 6 5 5 4 4 4 4 4 6 7 5 4 5 5 6 7 7 6 8 9 9 9 8 7
10 9 9 8 7 7 7 7 6 6 7 7 6 6 6 6 5 5 5 5 4 3 3 3 3 3 4 6 7 8 4 5 5 6 6 6 6 7 6 9 12 12 13
9 9 8 8 7 6 6 6 6 6 6 5 5 4 5 5 4 4 4 3 2 2 2 2 3 3 4 7 6 7 5 5 6 6 6 6 7 7 8 9 10 10 10
8 8 8 7 6 6 6 6 5 5 5 4 3 3 3 3 3 3 2 2 2 2 2 2 3 3 4 7 7 6 4 5 7 7 7 7 8 10 11 9 9 10 9
8 8 7 7 7 5 5 6 5 4 3 2 2 2 2 2 2 1 1 2 1 2 2 3 3 3 3 6 7 7 4 5 7 7 7 9 9 11 12 8 7 9 9
8 8 7 6 5 4 5 5 4 2 1 2 2 2 2 1 1 1 1 2 2 3 3 3 3 3 4 5 7 8 4 5 7 7 7 7 12 14 14 10 6 8 9
8 7 7 5 3 3 4 4 2 1 1 2 2 2 1 1 1 1 1 1 2 2 3 3 3 3 3 4 7 9 8 7 6 6 7 8 14 15 14 9 8 10 7
6 5 6 5 3 2 3 3 0 1 2 2 1 1 2 2 1 0 1 1 1 1 1 2 2 3 3 4 7 9 10 11 6 6 11 13 14 12 8 8 10 7 4
5 4 5 4 2 1 1 1 0 1 1 0 1 1 1 2 2 1 0 0 0 0 1 1 2 3 4 4 5 6 7 9 8 7 9 11 10 7 7 7 6 4 3
4 4 4 3 2 1 0 1 0 1 0 1 1 2 2 2 2 2 1 0 1 2 1 1 1 2 4 5 8 7 6 7 7 8 5 5 6 7 7 7 6 5 5
4 3 3 2 1 0 1 2 1 1 1 1 2 1 1 1 1 1 2 3 2 2 1 2 2 3 5 9 10 11 11 11 10 5 4 5 6 6 7 7 7 6 6
Wind_Direction
43 48 43 46 129 176 187 191 194 188 171 171 173 171 170 150 141 128 130 142 144 144 143 140 134 138 140 137 132 115 100 76 61 90 65 36 38 43 37 33 38 27 21
34 32 32 33 40 59 176 176 194 183 179 178 167 134 124 119 108 92 78 82 104 118 129 135 140 139 129 126 128 125 116 84 41 112 127 125 24 26 31 30 40 30 28
42 36 33 31 30 25 12 50 174 179 173 156 136 124 110 101 97 91 79 61 65 70 83 108 113 116 119 126 125 128 131 132 80 48 141 162 191 139 27 30 38 31 37
44 42 38 34 31 24 22 37 85 119 132 138 152 150 157 150 124 104 84 66 59 68 72 77 85 87 88 97 99 89 102 123 126 73 47 55 99 138 131 35 22 33 41
44 42 39 37 33 29 32 38 55 67 83 97 112 117 111 102 101 97 91 78 63 61 67 70 76 77 76 77 75 75 74 79 100 101 88 68 53 54 112 120 2 16 25
46 44 39 41 38 35 39 46 54 52 55 68 81 94 104 108 106 97 93 80 69 60 61 69 70 72 71 71 71 69 69 69 74 71 68 79 83 70 79 99 42 348 346
48 44 40 40 40 38 40 47 55 54 53 58 63 72 85 94 96 94 91 88 78 67 59 67 70 70 73 73 73 73 69 69 75 75 70 65 62 72 88 101 82 335 322
53 49 45 43 43 43 44 49 57 58 57 59 60 62 68 75 77 81 86 82 79 76 71 70 69 68 71 74 72 73 72 70 72 73 73 70 53 52 73 115 133 315 311
58 54 51 49 49 49 47 51 60 63 62 64 67 66 69 75 78 76 76 77 77 79 73 72 69 65 66 70 73 71 70 72 69 72 72 71 55 49 48 77 143 175 259
68 63 58 57 55 54 53 53 58 63 64 64 68 72 68 70 75 76 74 74 72 72 73 72 71 68 63 64 68 67 62 68 59 60 64 60 57 53 45 53 119 193 209
79 73 68 66 65 62 60 59 59 64 67 69 70 70 69 68 71 73 72 74 73 72 72 73 72 67 61 58 61 58 54 56 46 37 43 38 32 39 21 358 236 217 206
85 81 77 73 69 66 65 63 61 63 65 69 72 72 71 70 71 71 70 72 74 72 72 73 71 68 62 55 55 52 48 46 37 23 21 13 4 350 322 280 260 247 229
93 86 80 75 73 70 69 68 65 64 65 68 70 69 69 69 69 70 72 73 76 74 71 73 72 68 62 56 51 48 42 34 24 11 3 348 343 329 312 295 280 272 263
99 94 87 81 78 76 75 74 70 67 69 71 71 70 68 70 70 71 73 74 77 76 72 70 68 64 60 54 45 40 34 22 11 1 350 336 320 303 303 300 295 288 286
107 102 98 93 87 82 78 76 74 71 74 76 73 71 70 72 72 72 71 70 69 72 69 68 60 51 50 46 44 33 26 14 3 355 348 333 329 337 330 321 307 298 294
114 109 105 100 96 92 89 84 79 75 78 79 77 75 73 71 69 69 67 66 62 57 56 52 46 36 33 29 35 36 20 6 357 346 339 329 336 341 340 332 322 311 301
115 112 107 103 100 97 98 95 91 87 84 83 81 78 78 74 67 70 66 60 50 44 39 28 25 13 359 11 16 21 17 355 344 335 332 328 325 331 322 319 317 309 300
116 111 107 102 96 93 92 93 91 89 88 86 84 82 82 78 69 65 57 41 31 25 7 356 353 347 345 357 1 4 3 341 332 326 318 313 312 313 321 317 311 306 301
107 105 107 106 100 97 98 97 88 89 90 88 84 83 89 84 70 56 36 17 14 1 346 343 353 350 342 355 1 4 344 332 327 321 317 313 309 309 318 316 308 307 307
103 106 105 102 99 96 98 96 91 87 86 92 87 83 89 88 74 42 15 6 11 358 356 12 16 11 356 359 5 5 342 331 327 321 317 315 312 310 314 310 301 303 308
104 104 102 99 103 108 103 99 96 94 103 98 85 73 64 72 72 32 15 12 25 31 27 25 17 17 6 356 357 356 344 327 320 318 319 316 316 315 314 309 288 283 294
104 104 102 96 95 108 108 107 108 104 88 80 66 43 14 357 58 47 13 30 45 44 29 15 4 354 345 341 338 339 335 328 312 308 309 307 310 313 314 313 307 311 311
107 105 110 106 93 105 120 124 165 86 89 75 38 358 356 358 2 340 331 24 47 48 16 3 347 330 329 328 333 335 333 332 323 305 305 310 313 317 319 322 327 332 335
110 112 113 110 99 95 117 162 189 111 108 55 328 333 336 334 344 344 334 62 355 355 344 341 330 324 326 333 339 337 333 332 332 325 319 320 320 327 326 329 339 343 331
106 114 122 126 132 119 309 291 274 134 114 320 315 326 326 319 334 350 354 276 241 223 234 269 282 310 323 320 323 325 325 324 319 320 323 341 345 351 350 346 342 341 345
113 115 123 137 163 232 288 297 281 186 192 286 301 301 304 310 329 358 9 22 24 357 261 241 260 279 284 309 325 332 333 332 334 339 343 342 346 346 344 341 338 337 343